Weather History for Keokuk, IA

Change the Weather History Date:

Monday, July 8, 2013

  Actual Average Record
Temperature  
Mean Temperature 80 °F -  
Max Temperature 86 °F 89 °F 102 °F (1936)
Min Temperature 73 °F 68 °F 57 °F (1983)
Cooling Degree Days 14    
Growing Degree Days 30 (Base 50)    
Moisture  
Dew Point 69 °F    
Average Humidity 67    
Maximum Humidity 78    
Minimum Humidity 54    
Precipitation  
Precipitation 0.35 in - - ()
Sea Level Pressure  
Sea Level Pressure 30.01 in    
Wind  
Wind Speed 7 mph (SSW)    
Max Wind Speed 15 mph    
Max Gust Speed 21 mph    
Visibility 10 miles    
Events Rain    
Averages and records for this station are not official NWS values.
T = Trace of Precipitation, MM = Missing Value Source: NWS Daily Summary

Daily Weather History Graph

Daily Weather History Graph

Search for Another Location

Airport:

Trip Planner

Search our weather history database for the weather conditions in past years. The results will help you decide how hot, cold, wet, or windy it might be!

Date:

Astronomy

Jul. 08, 2013 Rise Set
Actual Time 5:43 AM CDT 8:38 PM CDT
Civil Twilight 5:10 AM CDT 9:10 PM CDT
Nautical Twilight 4:29 AM CDT 9:51 PM CDT
Astronomical Twilight 3:41 AM CDT 10:39 PM CDT
Moon 6:13 AM CDT (7/8) 8:40 PM CDT (7/8)
Length of Visible Light 16h 00m
Length of Day
14h 54m
New Moon, 0% of the Moon is Illuminated
Jul 8
New Moon
Jul 15
First Quarter
Jul 22
Full
Jul 29
Last Quarter
Aug 6
New

Hourly Weather History & Observations

Time (CDT) Temp. Heat Index Dew Point Humidity Pressure Visibility Wind Dir Wind Speed Gust Speed Precip Events Conditions
12:15 AM 82.4 °F 83.9 °F 64.4 °F 54% 30.00 in 10.0 mi SSW 6.9 mph - N/A   Clear
12:35 AM 82.4 °F 84.6 °F 66.2 °F 58% 30.00 in 10.0 mi South 8.1 mph - N/A   Clear
12:55 AM 80.6 °F 82.7 °F 66.2 °F 61% 29.99 in 10.0 mi South 6.9 mph - N/A   Clear
1:15 AM 82.4 °F 84.6 °F 66.2 °F 58% 30.00 in 10.0 mi South 6.9 mph - N/A   Scattered Clouds
1:35 AM 82.4 °F 84.6 °F 66.2 °F 58% 30.00 in 10.0 mi SSW 8.1 mph - N/A   Scattered Clouds
1:55 AM 82.4 °F 84.6 °F 66.2 °F 58% 29.99 in 10.0 mi SSW 10.4 mph - N/A   Scattered Clouds
2:15 AM 82.4 °F 84.6 °F 66.2 °F 58% 29.98 in 10.0 mi South 10.4 mph 18.4 mph N/A   Scattered Clouds
2:35 AM 80.6 °F 82.7 °F 66.2 °F 61% 29.98 in 10.0 mi South 10.4 mph - N/A   Clear
2:55 AM 80.6 °F 82.3 °F 64.4 °F 58% 29.97 in 10.0 mi SSW 10.4 mph 16.1 mph N/A   Scattered Clouds
3:15 AM 80.6 °F 82.3 °F 64.4 °F 58% 29.97 in 10.0 mi SSW 12.7 mph 17.3 mph N/A   Scattered Clouds
3:35 AM 80.6 °F 82.3 °F 64.4 °F 58% 29.96 in 10.0 mi SSW 11.5 mph - N/A   Mostly Cloudy
3:55 AM 80.6 °F 82.3 °F 64.4 °F 58% 29.98 in 10.0 mi SW 10.4 mph - N/A   Mostly Cloudy
4:15 AM 80.6 °F 82.7 °F 66.2 °F 61% 30.03 in 7.0 mi WNW 5.8 mph 20.7 mph 0.02 in   Overcast
4:35 AM 75.2 °F - 66.2 °F 73% 30.03 in 10.0 mi Calm Calm - 0.13 in Rain Light Rain
4:55 AM 75.2 °F - 66.2 °F 73% 30.01 in 10.0 mi South 5.8 mph - 0.17 in Rain Light Rain
5:15 AM 75.2 °F - 66.2 °F 73% 30.00 in 10.0 mi South 6.9 mph - N/A Rain Light Rain
5:55 AM 75.2 °F - 66.2 °F 73% 29.99 in 10.0 mi SW 5.8 mph - N/A   Scattered Clouds
6:15 AM 75.2 °F - 66.2 °F 73% 30.01 in 10.0 mi SSW 5.8 mph - N/A Rain Light Rain
6:35 AM 75.2 °F - 66.2 °F 73% 30.02 in 10.0 mi SW 6.9 mph - 0.01 in Rain Light Rain
6:55 AM 75.2 °F - 64.4 °F 69% 30.03 in 7.0 mi WSW 4.6 mph - 0.04 in Rain Rain
7:15 AM 75.2 °F - 66.2 °F 73% 30.03 in 10.0 mi Calm Calm - 0.04 in Rain Light Rain
7:35 AM 75.2 °F - 66.2 °F 73% 30.03 in 10.0 mi ESE 3.5 mph - 0.04 in   Mostly Cloudy
7:55 AM 75.2 °F - 66.2 °F 73% 30.04 in 10.0 mi SSE 4.6 mph - 0.04 in   Overcast
8:15 AM 75.2 °F - 66.2 °F 73% 30.04 in 10.0 mi SSE 6.9 mph - N/A   Overcast
8:35 AM 75.2 °F - 66.2 °F 73% 30.04 in 10.0 mi South 9.2 mph - 0.01 in   Overcast
8:55 AM 75.2 °F - 66.2 °F 73% 30.04 in 10.0 mi South 10.4 mph - 0.01 in Rain Light Rain
9:15 AM 75.2 °F - 64.4 °F 69% 30.04 in 10.0 mi South 9.2 mph 16.1 mph 0.01 in Rain Rain
9:35 AM 75.2 °F - 66.2 °F 73% 30.05 in 10.0 mi SSW 9.2 mph - 0.01 in   Mostly Cloudy
9:55 AM 75.2 °F - 66.2 °F 73% 30.04 in 7.0 mi South 10.4 mph - 0.08 in Rain Rain
10:15 AM 73.4 °F - 66.2 °F 78% 30.05 in 10.0 mi SW 9.2 mph - N/A Rain Light Rain
10:35 AM 75.2 °F - 66.2 °F 73% 30.04 in 7.0 mi South 9.2 mph - N/A Rain Light Rain
10:55 AM 75.2 °F - 66.2 °F 73% 30.02 in 10.0 mi South 9.2 mph - 0.01 in Rain Light Rain
11:15 AM 77.0 °F - 66.2 °F 69% 30.03 in 10.0 mi SSW 8.1 mph - N/A   Scattered Clouds
11:35 AM 78.8 °F - 66.2 °F 65% 30.04 in 10.0 mi SSW 10.4 mph 16.1 mph N/A   Clear
11:55 AM 78.8 °F - 69.8 °F 74% 30.04 in 10.0 mi SSW 9.2 mph - N/A   Clear
12:15 PM 80.6 °F 83.9 °F 69.8 °F 70% 30.04 in 10.0 mi SSW 13.8 mph - N/A   Clear
12:35 PM 80.6 °F 83.9 °F 69.8 °F 70% 30.03 in 10.0 mi SSW 11.5 mph - N/A   Clear
12:55 PM 82.4 °F 86.3 °F 69.8 °F 66% 30.03 in 10.0 mi SW 9.2 mph - N/A   Clear
1:15 PM 84.2 °F 89.6 °F 71.6 °F 66% 30.02 in 10.0 mi SSW 9.2 mph - N/A   Clear
1:35 PM 84.2 °F 89.6 °F 71.6 °F 66% 30.02 in 10.0 mi SSW 10.4 mph - N/A   Clear
1:55 PM 84.2 °F 89.6 °F 71.6 °F 66% 30.02 in 10.0 mi SSW 11.5 mph - N/A   Clear
2:15 PM 84.2 °F 89.6 °F 71.6 °F 66% 30.01 in 10.0 mi SSW 8.1 mph - N/A   Clear
2:35 PM 86.0 °F 91.8 °F 71.6 °F 62% 30.02 in 10.0 mi SW 11.5 mph - N/A   Clear
2:55 PM 86.0 °F 91.8 °F 71.6 °F 62% 30.02 in 10.0 mi SSW 12.7 mph - N/A   Clear
3:15 PM 86.0 °F 91.8 °F 71.6 °F 62% 30.02 in 10.0 mi SW 15.0 mph 19.6 mph N/A   Clear
3:35 PM 84.2 °F 89.6 °F 71.6 °F 66% 30.01 in 10.0 mi SW 11.5 mph 18.4 mph N/A   Clear
3:55 PM 84.2 °F 89.6 °F 71.6 °F 66% 30.01 in 10.0 mi SW 9.2 mph - N/A   Scattered Clouds
4:15 PM 84.2 °F 89.6 °F 71.6 °F 66% 30.01 in 10.0 mi SW 6.9 mph - N/A   Scattered Clouds
4:35 PM 84.2 °F 89.6 °F 71.6 °F 66% 30.01 in 10.0 mi SW 4.6 mph - N/A   Scattered Clouds
4:55 PM 84.2 °F 89.6 °F 71.6 °F 66% 30.01 in 10.0 mi SW 4.6 mph - N/A   Clear
5:15 PM 84.2 °F 89.6 °F 71.6 °F 66% 30.00 in 10.0 mi SW 6.9 mph - N/A   Scattered Clouds
5:35 PM 84.2 °F 89.6 °F 71.6 °F 66% 30.00 in 10.0 mi SW 4.6 mph - N/A   Scattered Clouds
5:55 PM 84.2 °F 89.6 °F 71.6 °F 66% 30.00 in 10.0 mi WSW 4.6 mph - N/A   Clear
6:15 PM 84.2 °F 90.9 °F 73.4 °F 70% 29.99 in 10.0 mi SSW 4.6 mph - N/A Rain Light Rain
6:35 PM 84.2 °F 89.6 °F 71.6 °F 66% 29.99 in 10.0 mi SSW 4.6 mph - N/A   Scattered Clouds
6:55 PM 84.2 °F 90.9 °F 73.4 °F 70% 29.99 in 10.0 mi SSW 3.5 mph - N/A   Clear
7:15 PM 84.2 °F 89.6 °F 71.6 °F 66% 29.99 in 10.0 mi Calm Calm - N/A   Clear
7:35 PM 84.2 °F 89.6 °F 71.6 °F 66% 29.99 in 10.0 mi Calm Calm - N/A   Clear
7:55 PM 84.2 °F 89.6 °F 71.6 °F 66% 29.99 in 10.0 mi Calm Calm - N/A   Clear
8:15 PM 84.2 °F 89.6 °F 71.6 °F 66% 29.99 in 10.0 mi Calm Calm - N/A   Clear
8:35 PM 82.4 °F 87.2 °F 71.6 °F 70% 29.98 in 10.0 mi South 3.5 mph - N/A   Clear
8:55 PM 82.4 °F 87.2 °F 71.6 °F 70% 29.98 in 10.0 mi Calm Calm - N/A   Clear
9:15 PM 80.6 °F 84.6 °F 71.6 °F 74% 29.99 in 10.0 mi Calm Calm - N/A   Clear
9:35 PM 80.6 °F 84.6 °F 71.6 °F 74% 29.99 in 10.0 mi South 3.5 mph - N/A   Clear
9:55 PM 82.4 °F 87.2 °F 71.6 °F 70% 29.99 in 10.0 mi South 3.5 mph - N/A   Clear
10:15 PM 82.4 °F 87.2 °F 71.6 °F 70% 30.00 in 10.0 mi Calm Calm - N/A   Clear
10:35 PM 82.4 °F 87.2 °F 71.6 °F 70% 30.00 in 10.0 mi Calm Calm - N/A   Clear
10:55 PM 82.4 °F 86.3 °F 69.8 °F 66% 30.01 in 10.0 mi Calm Calm - N/A   Clear
11:15 PM 82.4 °F 86.3 °F 69.8 °F 66% 30.01 in 10.0 mi Calm Calm - N/A   Clear
11:35 PM 80.6 °F 83.9 °F 69.8 °F 70% 30.01 in 10.0 mi SSW 3.5 mph - N/A   Scattered Clouds
11:55 PM 80.6 °F 83.9 °F 69.8 °F 70% 30.00 in 10.0 mi SSW 4.6 mph - N/A   Scattered Clouds